TimeCST,TemperatureF,Dew PointF,Humidity,Sea Level PressureIn,VisibilityMPH,Wind Direction,Wind SpeedMPH,Gust SpeedMPH,PrecipitationIn,Events,Conditions,WindDirDegrees,DateUTC
12:53 AM,37.0,30.9,79,29.97,10.0,WSW,8.1,-,N/A,,Clear,240,2014-01-12 06:53:00
1:53 AM,37.0,30.0,76,29.97,10.0,SW,5.8,-,N/A,,Clear,230,2014-01-12 07:53:00
2:53 AM,35.1,28.9,78,29.99,10.0,SW,5.8,-,N/A,,Clear,220,2014-01-12 08:53:00
3:53 AM,32.0,28.0,85,30.01,10.0,SW,5.8,-,N/A,,Clear,230,2014-01-12 09:53:00
4:53 AM,33.1,28.9,85,30.02,10.0,SSW,5.8,-,N/A,,Clear,210,2014-01-12 10:53:00
5:53 AM,28.9,26.1,89,30.04,10.0,SW,4.6,-,N/A,,Clear,220,2014-01-12 11:53:00
6:53 AM,34.0,30.0,85,30.05,10.0,South,5.8,-,N/A,,Clear,180,2014-01-12 12:53:00
7:53 AM,35.1,30.9,85,30.06,10.0,South,4.6,-,N/A,,Clear,190,2014-01-12 13:53:00
8:53 AM,39.0,33.1,79,30.08,10.0,SSW,4.6,-,N/A,,Clear,200,2014-01-12 14:53:00
9:53 AM,43.0,35.1,74,30.08,10.0,SW,6.9,-,N/A,,Clear,220,2014-01-12 15:53:00
10:53 AM,46.9,36.0,66,30.05,10.0,South,8.1,-,N/A,,Clear,190,2014-01-12 16:53:00
11:53 AM,50.0,35.1,57,30.01,10.0,South,12.7,20.7,N/A,,Clear,180,2014-01-12 17:53:00
12:53 PM,52.0,34.0,50,29.98,10.0,South,9.2,-,N/A,,Clear,190,2014-01-12 18:53:00
1:53 PM,54.0,34.0,47,29.94,10.0,SSW,12.7,18.4,N/A,,Clear,200,2014-01-12 19:53:00
2:53 PM,55.9,34.0,44,29.94,10.0,South,10.4,19.6,N/A,,Clear,180,2014-01-12 20:53:00
3:53 PM,55.0,34.0,45,29.93,10.0,South,10.4,-,N/A,,Clear,180,2014-01-12 21:53:00
4:53 PM,52.0,34.0,50,29.91,10.0,SSE,11.5,-,N/A,,Clear,160,2014-01-12 22:53:00
5:53 PM,50.0,34.0,54,29.91,10.0,SSE,11.5,-,N/A,,Clear,160,2014-01-12 23:53:00
6:53 PM,51.1,33.1,50,29.90,10.0,SSE,12.7,-,N/A,,Clear,160,2014-01-13 00:53:00
7:53 PM,51.1,33.1,50,29.88,10.0,South,15.0,24.2,N/A,,Clear,170,2014-01-13 01:53:00
8:53 PM,51.1,33.1,50,29.89,10.0,South,9.2,-,N/A,,Clear,180,2014-01-13 02:53:00
9:53 PM,51.1,33.1,50,29.88,10.0,South,12.7,19.6,N/A,,Clear,170,2014-01-13 03:53:00
10:53 PM,52.0,33.1,49,29.87,10.0,South,12.7,21.9,N/A,,Clear,180,2014-01-13 04:53:00
11:53 PM,55.0,33.1,43,29.84,10.0,SSW,10.4,20.7,N/A,,Clear,200,2014-01-13 05:53:00